sat.trackr.live / text

‹ back to catalog

STARLINK-4296

NORAD 52995 · 2022-076K

PAYLOAD ACTIVE UNKNOWN

§ Identity

Operator
Country
US
Launch date
2022-07-07
Launch site
AFETR
Launch vehicle
Mass (kg)
RCS (m²)

Purposes: comms

External: N2YO · Heavens-Above · Gunter

§ Orbital elements

Epoch: 2026-09-19T18:53:31.112160Z

Period
93.79 min
Inclination
53.1597°
Eccentricity
0.0001241
Mean motion
15.35397311 rev/d
Perigee alt
458.9 km
Apogee alt
460.6 km
Semi-major
6,837.9 km
B*
3.3728e-5
RAAN
286.8085°
Arg perigee
88.8902°
Mean anomaly
271.2243°
Rev number
23,236

§ Raw data

STARLINK-42961 52995U 22076K   26262.78716565  .00000796  00000+0  33728-4 0  99982 52995  53.1597 286.8085 0001241  88.8902 271.2243 15.35397311232367

JSON: /api/v1/satellites/52995 · /tle

For live sub-satellite position, see the globe view (requires WebGL).

§ Visibility from observer

Set your observer location to see the next 7 days of passes ≥ 10°. The values pass through the URL so the page stays shareable.

No JS? Fill the form by hand. The geolocation button needs JavaScript.